Theta_e
339 338 339 337 334 333 333 333 333 333 333 334 333 333 334 336 335 334 336 339 337 338 339 340 345 347 348 349 347 346 344 343 341 339 339 338 339 341 342 344 344 343 341
339 338 337 337 335 335 335 336 333 332 332 332 332 333 335 335 335 336 335 335 336 335 337 340 345 347 348 348 347 346 344 342 340 338 338 337 338 339 343 342 340 339 338
340 340 338 336 335 337 338 337 336 334 332 332 332 332 334 337 336 336 336 333 333 336 337 339 344 347 348 348 348 345 343 342 339 337 336 337 337 338 341 341 339 337 336
341 340 339 337 337 338 337 335 336 332 332 329 333 334 334 336 334 336 333 330 333 335 338 341 344 346 348 347 348 345 343 341 339 337 336 336 337 339 340 339 336 335 334
340 339 336 336 337 336 336 335 335 332 333 332 330 335 334 334 333 331 329 334 339 337 340 344 345 345 347 348 348 346 342 340 338 337 337 337 338 338 338 337 336 335 333
338 337 336 336 337 336 336 335 333 333 331 332 330 331 333 330 329 329 332 337 339 340 345 347 348 348 346 346 347 346 344 342 339 338 336 337 337 339 337 336 334 333 331
337 336 335 335 335 333 335 335 332 329 330 333 330 330 333 330 332 331 337 340 339 341 345 348 349 351 348 343 344 345 344 342 340 338 338 337 337 338 336 334 332 331 330
338 336 335 335 335 334 334 332 332 327 327 333 328 326 317 326 333 335 339 338 338 342 343 345 345 347 343 342 347 343 343 342 339 340 338 337 337 337 334 333 331 330 329
336 337 337 336 334 336 334 333 331 330 329 332 333 323 316 314 324 333 336 337 337 338 341 344 345 347 347 346 344 343 341 340 339 341 338 338 337 334 333 332 330 329 328
336 335 336 335 335 337 334 331 331 334 334 328 333 328 330 326 319 320 331 334 338 339 341 344 345 346 347 346 343 342 337 338 340 338 337 336 335 334 333 331 330 329 328
337 336 337 336 336 335 334 332 333 335 336 330 333 326 332 332 331 328 320 326 334 339 341 341 343 345 345 343 342 337 335 335 335 335 335 336 334 333 332 331 330 329 329
338 336 335 337 337 335 333 332 335 335 335 333 333 331 330 329 328 327 322 327 326 330 338 335 337 339 341 339 336 333 332 330 329 329 331 331 332 333 332 331 330 330 329
337 336 337 337 337 335 334 334 336 335 336 333 330 333 333 335 337 335 326 326 322 325 327 336 337 333 335 336 334 332 330 327 325 325 327 329 331 332 332 331 330 330 329
338 338 337 337 336 335 334 335 334 336 336 335 331 331 331 334 334 337 332 327 322 323 327 327 336 333 334 334 333 330 328 325 324 323 323 325 326 328 329 330 330 330 330
337 337 337 336 335 335 334 336 334 335 335 336 335 332 328 327 335 338 337 336 330 320 319 324 325 331 328 331 329 328 326 325 324 322 321 321 323 324 325 326 326 326 326
335 336 335 336 335 334 333 335 335 335 332 334 338 332 330 326 333 334 336 330 328 326 318 325 325 325 326 327 328 327 327 326 322 320 320 319 320 321 321 322 323 325 324
336 335 334 334 334 333 334 334 334 333 333 334 335 332 325 331 331 332 332 330 326 327 323 324 324 326 325 325 327 326 328 327 324 320 321 319 317 318 319 320 322 323 322
335 335 334 333 333 333 334 333 331 332 332 331 330 330 330 332 329 329 331 329 330 333 327 321 323 324 324 325 326 325 325 326 325 320 318 316 316 316 318 320 320 316 314
335 335 334 332 332 333 333 333 332 332 330 332 332 330 331 331 327 328 331 334 332 331 326 322 320 323 323 324 323 324 323 324 325 321 316 315 315 316 314 313 312 309 306
332 334 333 333 332 332 333 332 331 331 329 332 331 333 332 331 332 334 334 332 331 328 326 322 320 320 322 323 323 321 320 323 321 321 316 317 314 312 310 309 308 306 303
332 333 332 333 331 332 331 331 330 331 328 329 330 330 331 328 321 326 336 332 331 326 324 321 319 319 320 320 319 320 317 320 321 321 319 318 318 317 314 309 307 304 302
332 331 331 331 331 329 309 312 324 329 328 328 327 328 330 326 321 311 313 314 328 324 322 321 319 318 320 320 320 317 317 315 318 329 324 320 322 318 316 311 302 301 300
333 329 329 330 330 330 305 307 312 329 327 327 330 329 328 329 327 328 311 310 310 309 317 324 320 322 321 323 321 318 321 320 319 321 320 315 318 313 310 304 300 299 299
333 325 325 329 329 324 304 305 308 329 328 327 328 328 327 329 324 325 323 322 319 321 325 326 325 325 325 327 330 326 323 328 324 321 324 315 317 312 309 304 299 298 297
333 331 329 326 327 324 302 305 318 328 326 324 324 322 321 324 303 307 320 319 318 317 305 304 308 307 307 310 321 328 323 321 319 321 325 319 316 312 310 305 300 297 296
333 332 322 323 316 321 300 304 319 328 323 321 323 322 306 313 302 308 324 322 318 321 325 321 318 312 316 315 310 334 326 322 322 321 324 318 315 313 309 312 308 304 302
Wind_Speed
7 8 7 8 8 8 8 7 7 7 8 9 10 11 11 9 11 5 4 13 9 10 11 12 11 10 14 16 19 22 21 20 20 16 13 6 5 9 14 16 16 15 13
7 8 8 10 10 9 8 7 7 7 8 8 9 11 11 11 12 8 8 6 12 11 11 13 12 11 15 19 24 25 24 23 22 20 16 8 8 12 15 16 16 14 10
9 10 8 9 8 9 11 8 9 8 8 8 9 8 6 9 8 8 7 7 9 15 13 14 13 13 17 22 26 25 24 24 22 19 16 11 7 12 15 15 16 15 14
11 9 7 7 7 7 9 8 8 8 7 7 7 4 5 4 6 10 8 7 7 6 14 14 13 14 17 24 28 27 25 22 22 21 20 14 15 16 14 15 16 16 15
10 9 7 7 6 7 7 7 7 7 6 5 6 4 7 8 10 7 8 8 8 7 3 9 12 14 18 26 28 26 24 22 21 21 21 18 19 16 15 16 15 16 15
9 8 6 7 5 5 6 7 8 7 6 5 6 6 7 6 6 7 6 5 4 7 7 9 8 11 20 25 25 25 24 24 22 23 22 18 18 17 17 17 17 16 15
9 7 6 5 6 7 8 9 7 7 5 6 6 6 6 6 6 5 4 6 5 5 6 6 6 7 13 23 22 21 25 25 25 23 20 19 19 18 18 17 17 16 16
8 7 6 7 8 7 8 7 8 5 5 7 6 8 7 4 4 5 5 5 4 3 4 6 8 10 10 9 18 23 26 28 27 24 24 20 19 19 19 18 16 16 15
6 6 7 7 5 5 6 7 6 8 7 7 8 5 4 5 8 4 7 5 5 4 4 4 8 10 12 11 15 20 25 27 28 25 24 22 20 21 19 18 16 15 13
6 6 5 6 7 5 6 6 7 5 6 8 6 4 4 3 7 6 3 5 6 6 5 4 5 8 11 10 16 20 24 25 26 25 23 23 22 21 19 18 15 13 13
6 7 6 5 6 5 6 5 5 6 4 4 5 5 2 2 4 5 9 5 4 3 4 3 4 6 8 9 9 15 24 22 24 22 21 21 21 19 19 17 15 14 13
5 7 7 6 6 6 7 6 5 6 4 5 4 4 3 3 4 5 7 7 6 3 4 3 3 4 7 7 10 21 23 19 20 18 17 18 17 18 17 16 16 14 12
5 6 6 6 5 6 6 6 6 6 5 5 7 4 3 3 3 4 4 7 3 2 2 2 5 3 4 7 12 18 25 21 19 14 14 14 14 15 14 15 14 11 10
3 5 6 6 6 7 7 7 5 5 4 5 6 4 2 2 2 3 5 10 6 3 3 3 3 4 4 6 16 28 18 21 17 13 13 12 11 12 11 11 10 8 6
4 6 6 6 6 6 7 7 5 4 4 4 6 7 4 1 1 3 5 6 4 4 3 1 0 4 7 9 20 14 16 18 16 13 11 11 12 10 9 8 8 7 6
4 7 7 6 7 7 7 7 5 5 4 5 5 9 7 3 3 3 6 5 5 2 4 1 0 8 12 12 19 16 14 15 15 11 11 11 11 9 8 7 7 5 5
5 7 7 7 8 9 8 6 5 6 7 6 7 8 5 6 5 4 5 5 3 2 7 2 7 9 15 16 13 14 13 9 7 11 11 10 8 8 7 7 6 5 3
5 6 6 7 7 8 7 7 7 5 5 6 5 8 8 6 8 5 5 5 5 6 7 9 12 10 12 14 14 13 10 7 7 8 10 7 7 8 7 6 5 5 6
6 7 7 7 7 8 7 6 5 5 5 5 8 7 6 9 7 6 6 6 6 7 7 8 11 10 8 11 12 10 9 9 5 9 9 8 8 9 9 9 9 11 12
4 6 7 6 7 6 7 6 4 5 4 5 5 6 7 5 8 9 7 8 8 9 10 10 10 10 9 9 8 9 7 5 7 5 8 12 11 14 15 15 15 16 14
6 5 6 7 7 5 4 7 7 7 4 5 5 6 5 7 10 5 6 8 10 9 8 10 9 9 9 8 9 7 8 8 5 5 9 9 9 10 10 15 16 17 16
7 7 7 8 7 4 7 4 7 7 6 5 6 6 7 7 8 8 11 10 8 10 10 8 8 10 10 8 10 10 9 9 8 3 8 8 7 8 8 9 14 13 13
9 7 5 7 6 8 8 6 5 7 6 6 7 7 7 6 7 9 13 13 13 12 8 11 13 9 11 10 10 12 10 7 7 9 9 9 8 9 9 9 9 11 11
9 7 5 6 8 7 6 5 1 7 9 7 7 8 8 9 8 10 10 10 9 9 8 6 10 10 10 9 10 9 7 9 10 10 8 8 8 9 8 8 6 9 11
8 8 8 7 9 9 6 6 6 9 8 9 8 7 7 9 8 12 9 10 10 9 9 11 13 12 12 12 8 9 9 10 9 8 7 8 7 8 7 7 7 9 9
8 9 8 7 10 8 5 5 6 8 8 6 7 10 9 8 10 8 8 7 9 9 12 11 8 10 10 7 6 8 9 8 7 6 7 6 9 9 6 8 9 7 8
Wind_Direction
249 252 254 254 253 246 239 236 242 246 248 243 245 235 241 237 247 188 207 176 212 246 256 256 257 233 214 187 160 159 149 146 138 141 143 186 205 167 152 133 122 120 121
246 258 250 248 249 246 248 259 241 240 235 255 241 241 241 208 227 205 234 199 205 230 248 254 252 226 210 177 164 159 157 152 151 146 144 151 195 181 158 134 128 118 127
241 256 256 253 255 247 248 241 251 232 249 241 248 234 232 241 243 218 233 242 202 204 223 243 241 226 202 182 165 160 160 158 152 149 145 155 195 206 147 135 128 132 133
246 252 249 247 238 240 242 230 235 241 243 238 244 224 225 216 211 223 229 234 231 250 193 220 230 221 203 184 176 169 164 161 159 156 154 167 204 188 134 140 140 138 134
246 252 252 248 233 230 229 229 228 229 235 237 228 177 211 205 203 212 220 217 241 252 228 204 215 201 187 181 172 166 166 162 165 165 149 179 193 146 146 141 139 135 136
252 247 244 251 232 224 223 227 224 230 233 216 217 189 212 200 194 207 215 219 231 238 225 223 192 183 176 177 174 173 175 166 163 157 157 173 160 147 147 142 136 139 139
251 260 257 240 220 224 226 223 232 229 219 208 187 182 196 196 201 216 193 194 195 209 223 208 180 175 184 179 170 167 162 161 158 157 155 159 149 147 141 141 144 144 139
260 254 232 224 212 220 224 224 222 199 193 190 181 193 162 155 197 191 189 175 161 180 208 188 173 178 171 171 164 164 165 162 160 161 152 151 147 144 148 148 149 147 147
239 220 210 224 211 226 224 220 197 209 191 185 217 252 172 174 158 193 176 162 147 149 145 180 179 172 177 175 156 164 161 160 161 160 155 146 148 147 150 151 154 147 143
212 200 211 217 219 211 213 196 191 201 200 183 197 227 299 81 174 161 175 163 158 160 156 144 168 167 164 164 168 163 162 164 158 155 152 149 149 153 148 157 148 143 162
211 207 213 217 209 196 197 187 183 204 197 161 198 182 205 193 189 218 156 160 145 144 132 117 150 152 149 150 165 154 153 153 150 147 148 150 152 147 161 150 146 164 168
207 207 204 209 197 185 188 195 182 199 174 181 192 190 202 199 177 179 162 155 110 73 120 130 117 135 140 135 136 128 135 139 127 137 148 140 147 165 156 152 168 164 164
213 178 200 202 184 187 179 189 192 197 195 192 193 199 179 217 154 206 182 143 121 85 71 111 127 103 133 137 140 129 125 128 121 130 135 147 158 150 158 164 165 161 168
203 185 188 183 181 173 174 189 192 198 162 156 139 171 153 286 300 162 188 153 130 132 92 113 157 165 131 130 144 140 130 128 126 135 135 149 143 145 153 158 156 158 141
160 170 171 160 157 166 175 176 199 174 159 138 171 152 131 231 343 160 165 137 151 137 131 96 116 146 146 144 129 124 128 132 126 132 137 137 131 144 144 143 148 137 129
162 160 157 152 150 155 172 187 174 159 155 166 148 139 150 194 191 136 139 104 89 96 81 117 343 133 119 120 126 122 124 128 126 131 128 133 137 134 153 139 123 128 151
161 162 156 152 153 153 159 166 185 168 177 169 128 149 151 177 140 119 130 119 134 164 154 133 129 115 114 120 117 115 129 123 117 119 128 113 128 145 120 129 140 164 143
129 156 154 145 149 145 148 160 167 160 160 143 115 115 173 152 148 159 161 155 165 178 143 142 146 130 121 121 119 117 115 109 110 108 103 125 132 128 134 132 114 118 92
137 148 157 158 147 135 146 156 154 160 160 154 145 159 167 156 143 164 166 140 123 113 102 111 124 115 112 119 117 115 123 117 102 108 102 115 91 92 93 94 94 93 94
117 131 143 150 129 149 143 142 145 142 155 128 126 154 133 160 171 166 147 131 131 127 115 115 111 119 124 122 125 125 119 116 120 107 83 86 94 90 88 88 93 96 89
104 96 106 125 127 135 140 146 148 135 142 133 129 119 106 63 49 61 128 135 134 128 131 131 138 132 133 136 134 110 109 105 131 138 123 133 133 117 108 84 96 91 86
121 117 135 133 139 146 115 137 146 137 133 143 128 116 109 111 83 66 67 71 127 137 135 136 138 148 136 123 115 125 129 145 134 154 134 129 125 104 89 81 89 93 90
114 102 110 136 136 121 130 140 162 139 145 134 132 117 116 112 132 106 81 81 82 80 105 137 141 135 127 129 127 134 154 153 147 143 141 128 121 104 103 104 90 96 96
131 121 114 123 124 118 128 146 143 126 106 114 107 110 109 102 103 117 101 87 80 77 104 112 129 126 128 140 147 143 162 129 133 162 147 132 144 126 121 115 94 96 86
121 141 135 141 133 130 146 145 133 115 112 96 91 86 98 104 83 92 96 104 99 97 65 78 97 116 117 120 140 154 156 154 156 159 193 146 150 142 148 146 141 125 116
128 120 130 134 127 137 170 159 168 117 108 98 103 102 78 104 104 101 108 111 107 116 127 118 107 104 134 136 176 200 178 174 162 155 165 162 153 165 175 170 163 168 165